BREEZE-KM R/B (44518 NORAD) Tracking and Keplerian Element Data

This shows tracking and keplerian element data for the satellite.

Feedback or suggestion? Click here.




ElementValue
Catalog44518
NameBREEZE-KM R/B
Epoch Orbit417
Epoch Day271.92792067
Epoch Year2019
RAAN279.5111
Inclination99.228
Eccentricity0.0199013
Argument of Perigee172.9654
Mean Anonmoly187.4391
Mean Motion14.24631217
Decay Rate-3.3E-07
L11 44518U 19057B 19271.92792067 -.00000033 00000-0 67944-5 0 9998
L22 44518 99.2280 279.5111 0199013 172.9654 187.4391 14.24631217 4173



Live tracking and technical data element details for BREEZE-KM R/B (NORAD 44518). BREEZE-KM R/B can be tracked NOW for your location showing map with azimuth and elevation plus other details from your city location.







IsCatalogInMostPopularTable: catalog: 44518, numindb: 215
Update: records affected: 1



GetName: 44518 BREEZE-KM R/B

Hit Count: updated at: Sat, 10 Jun 2023 23:59:49 GMT